[Iaude] MPEC E65: 2024 EN1 [a=1.09,e=0.43,i=12.5,H=23.5]
    mpec at cfa.harvard.edu 
    mpec at cfa.harvard.edu
       
    Tue Mar  5 18:18:02 EST 2024
    
    
  
M.P.E.C. 2024-E65                                 Issued 2024 March 5, 23:16 UT
     The Minor Planet Electronic Circulars contain information on unusual
         minor planets, routine data on comets and natural satellites,
         and occasional editorial announcements.  They are published
    on behalf of Division F of the International Astronomical Union by the
          Minor Planet Center, Smithsonian Astrophysical Observatory,
                          Cambridge, MA 02138, U.S.A.
			  
             Prepared using the Tamkin Foundation Computer Network
                              MPC at CFA.HARVARD.EDU
            URL https://www.minorplanetcenter.net/    ISSN 1523-6714
                                    2024 EN1                                    
Observations:
     K24E01N  C2024 03 01.49296410 31 22.088+10 39 04.34         20.95GVEE065F51
     K24E01N  C2024 03 01.51713710 31 16.934+10 40 33.31         20.89GVEE065F51
     K24E01N  C2024 03 01.52925510 31 14.343+10 41 17.55         21.75GVEE065F51
     K24E01N*1C2024 03 05.24411510 17 43.832+14 45 36.58         21.01GVEE065G96
     K24E01N 1C2024 03 05.24938910 17 42.518+14 45 58.39         20.50GVEE065G96
     K24E01N 1C2024 03 05.25464810 17 41.204+14 46 20.78         21.55GVEE065G96
     K24E01N 1C2024 03 05.25992010 17 39.894+14 46 42.31         21.23GVEE065G96
     K24E01N KC2024 03 05.28799110 17 32.722+14 48 39.61         21.4 GVEE065H01
     K24E01N KC2024 03 05.29251910 17 31.596+14 48 58.51         21.8 GVEE065H01
     K24E01N KC2024 03 05.30524810 17 28.413+14 49 51.94         21.8 GVEE065H01
     K24E01N KC2024 03 05.30862710 17 27.571+14 50 05.97         21.9 GVEE065H01
     K24E01N KC2024 03 05.35738210 17 15.500+14 53 31.16         21.12GVEE065I52
     K24E01N KC2024 03 05.36276410 17 14.147+14 53 53.41         21.44GVEE065I52
     K24E01N KC2024 03 05.36546110 17 13.456+14 54 04.90         20.97GVEE065I52
     K24E01N KC2024 03 05.93737610 14 57.048+15 34 23.77         21.7 GVEE065598
     K24E01N KC2024 03 05.94053610 14 56.254+15 34 37.38         22.1 GVEE065598
     K24E01N KC2024 03 05.94607210 14 54.862+15 35 01.39         20.7 GVEE065598
Observer details:
598 Loiano.  Observer A. Carbognani.  1.52-m f/4.75 Reflector + CCD.
F51 Pan-STARRS 1, Haleakala.  Observers J. Herman, T. Lowe, P. Minguez, A.
    Schultz, I. Smith.  Measurers K. Chambers, T. de Boer, J. Fairlamb, H.
    Gao, M. Huber, C.-C. Lin, E. Magnier, Y. Ramanjooloo, R. Wainscoat, R.
    Weryk.  1.8-m Ritchey-Chretien + CCD.
G96 Mt. Lemmon Survey.  Observer G. J. Leonard.  Measurers T. Beuden, V. F.
    Carvajal, D. Fay, J. B. Fazekas, D. C. Fuls, A. R. Gibbs, A. D. Grauer, H.
    Groeller, J. K. Hogan, R. A. Kowalski, S. M. Larson, G. J. Leonard, D.
    Rankin, R. L. Seaman, F. C. Shelly, K. W. Wierzchos.  1.5-m reflector +
    10K CCD.
H01 Magdalena Ridge Observatory, Socorro.  Observers W. H. Ryan, E. V. Ryan.
    Measurer W. H. Ryan.  2.4-m f/8.9 Ritchey-Chretien + CCD.
I52 Steward Observatory, Mt. Lemmon Station.  Observer J. K. Hogan.  Measurers
    T. Beuden, V. F. Carvajal, D. Fay, J. B. Fazekas, D. C. Fuls, A. R. Gibbs,
    A. D. Grauer, H. Groeller, J. K. Hogan, R. A. Kowalski, S. M. Larson, G.
    J. Leonard, D. Rankin, R. L. Seaman, F. C. Shelly, K. W. Wierzchos.  1.0-m
    prime focus + CCD.
Orbital elements:
2024 EN1                                                 Earth MOID = 0.0962 AU
Epoch 2024 Mar. 31.0 TT = JDT 2460400.5                 MPC                     
M 299.73154              (2000.0)            P               Q                  
n   0.86597164     Peri.  133.17051     +0.37961922     +0.92179481             
a   1.0901015      Node   158.75017     -0.89923705     +0.38762750             
e   0.4341490      Incl.   12.53083     -0.21739817     +0.00626506             
P   1.14           H   23.59          G   0.15           U   8                  
Residuals in seconds of arc
240301 F51  0.1+  0.0     240305 G96  0.1+  0.4-    240305 I52  0.0   0.2-
240301 F51  0.1+  0.1+    240305 H01  0.1-  0.1+    240305 I52  0.2-  0.0
240301 F51  0.1-  0.1-    240305 H01  0.0   0.0     240305 598  0.2-  0.2-
240305 G96  0.1-  0.3+    240305 H01  0.0   0.1+    240305 598  0.0   0.1-
240305 G96  0.0   0.1-    240305 H01  0.1+  0.0     240305 598  0.3+  0.3+
240305 G96  0.0   0.2+    240305 I52  0.2+  0.1+
Ephemeris:
2024 EN1                 a,e,i = 1.09, 0.43, 13                  q = 0.6168
Date    TT    R. A. (2000) Decl.     Delta      r    Elong.  Phase     V
2024 02 04    11 16 56.1 -04 22 13   0.4676  1.3833   141.7    26.2    23.8
...
2024 02 19    11 00 35.8 +01 26 03   0.3331  1.3107   163.1    12.6    22.5
...
2024 02 27    10 42 09.9 +07 18 52   0.2768  1.2668   178.1     1.5    21.5
...
2024 03 04    10 22 30.2 +13 20 29   0.2438  1.2315   168.6     9.2    21.6
2024 03 05    10 18 40.9 +14 28 45   0.2392  1.2255   166.2    11.1    21.6
2024 03 06    10 14 42.0 +15 39 06   0.2348  1.2193   163.8    13.1    21.6
...
2024 03 12    09 47 21.2 +23 16 20   0.2143  1.1815   148.4    26.2    21.8
...
2024 03 20    09 01 58.6 +33 55 54   0.2016  1.1280   126.7    45.1    22.1
...
2024 04 04    07 14 33.6 +49 18 07   0.2112  1.0193    89.2    78.8    23.0
A. U. Tomatic                (C) Copyright 2024 MPC           M.P.E.C. 2024-E65
    
    
More information about the Iaude
mailing list